{"data":{"norad_id":59781,"epoch":"2026-09-22T21:56:16.386720Z","epoch_age_seconds":64125,"freshness":"FRESH","line1":"1 59781U 24092J   26265.91407855  .00000081  00000+0  47031-4 0  9994","line2":"2 59781  98.6805  24.9008 0011029 283.6207  76.3747 14.31877844122884","mean_motion":14.31877844,"eccentricity":0.0011029,"inclination_deg":98.6805,"raan_deg":24.9008,"arg_perigee_deg":283.6207,"mean_anomaly_deg":76.3747,"bstar":4.7031e-5,"rev_number":12288,"period_min":100.56723805275,"perigee_km":777.56008158894,"apogee_km":793.36154564622,"semimajor_km":7163.5978136176,"source":"CELESTRAK","updated_at":"2026-09-23T09:00:19.581736Z"}}